Flag for U.S.A. Weather past 2 weeks in Augusta, Georgia, U.S.A.

Now
50 °F

Clear.


Feels Like: 48 °F
Forecast: 33 / 47 °F
Wind: 6 mph from East

Location: Daniel Field

Current Time: Feb 27, 2015 at 10:05:53 PM

Latest Report: Feb 27, 2015 at 8:53 PM


Visibility: 10 mi

Pressure: 30.40 "Hg

Humidity: 54%

Dew point: 34 °F

Location of AugustaLocation

Historic Weather in Augusta — Graph

°F

Augusta temperature yesterday

Maximum temperature yesterday: 47 °F (at 3:53 PM)
Minimum temperature yesterday: 37 °F (at 2:04 AM)
Average temperature yesterday: 42 °F

Past Weeks' High & Low Weather Summary

 TemperatureHumidityPressure
High66 °F (Feb 21, 3:53 PM)100% (Feb 22, 11:53 PM)30.50 "Hg (Feb 22, 11:53 PM)
Low18 °F (Feb 20, 5:53 AM)13% (Feb 15, 2:53 PM)29.62 "Hg (Feb 26, 12:53 AM)
Average42 °F59%30.12 "Hg
* Reported Feb 12 8:53 PM — Feb 27 8:53 PM, Augusta, Weather by CustomWeather, © 2015

Note: Actual official high and low records may vary slightly from our data, if they occured in-between our weather recording intervals... More about our weather records

Advertising

Augusta weather history for previous 24 hours

 ConditionsComfort  
Time TempWeatherWind HumidityBarometerVisibility
8:53 PM
Fri, Feb 27
50 °FClear.6 mph54%30.40 "Hg10 mi
7:53 PM51 °FClear.5 mph48%30.37 "Hg10 mi
6:53 PM53 °FClear.5 mph43%30.35 "Hg10 mi
5:53 PM56 °FSunny.5 mph40%30.34 "Hg10 mi
4:53 PM57 °FSunny.No wind37%30.33 "Hg10 mi
3:53 PM58 °FSunny.No wind38%30.32 "Hg10 mi
2:53 PM56 °FSunny.No wind40%30.32 "Hg10 mi
1:53 PM55 °FScattered clouds.5 mph44%30.33 "Hg10 mi
12:53 PM54 °FPassing clouds.5 mph45%30.36 "Hg10 mi
11:53 AM50 °FPartly sunny.No wind57%30.37 "Hg10 mi
10:53 AM48 °FPassing clouds.No wind61%30.37 "Hg10 mi
9:53 AM46 °FMore clouds than sun.No wind71%30.37 "Hg10 mi
8:53 AM44 °FOvercast.No wind76%30.35 "Hg10 mi
7:53 AM42 °FPartly sunny.No wind82%30.30 "Hg10 mi
6:53 AM42 °FOvercast.3 mph82%30.28 "Hg10 mi
5:53 AM42 °FOvercast.No wind82%30.24 "Hg10 mi
4:53 AM43 °FOvercast.5 mph79%30.22 "Hg10 mi
3:53 AM43 °FOvercast.No wind86%30.20 "Hg10 mi
2:53 AM43 °FOvercast.3 mph82%30.19 "Hg10 mi
1:53 AM44 °FOvercast.3 mph79%30.18 "Hg10 mi
12:53 AM44 °FOvercast.3 mph76%30.18 "Hg10 mi
11:53 PM
Thu, Feb 26
44 °FOvercast.No wind76%30.15 "Hg10 mi
10:53 PM45 °FOvercast.3 mph74%30.15 "Hg10 mi
Weather by CustomWeather, © 2015

See weather overviewHow to use our weather pages